Regional Weather Roundup
Issued by NWS

Home | Current Version | Previous Version | Text Only | Print | Product List | Glossary Off
Versions: 1 2 3 4 5 6 7 8 9 10 11 12 13 14 15 16 17 18 19 20 21 22 23 24 25 26 27 28 29 30 31 32 33 34 35 36 37 38 39 40 41 42 43 44 45 46 47 48 49 50

000
ASUS43 KMKX 010759
RWRWI

WISCONSIN REGIONAL WEATHER ROUNDUP
NATIONAL WEATHER SERVICE MILWAUKEE/SULLIVAN WI
200 AM CST SUN FEB 01 2015

NOTE: "FAIR" INDICATES FEW OR NO CLOUDS BELOW 12,000 FEET WITH NO
SIGNIFICANT WEATHER AND/OR OBSTRUCTIONS TO VISIBILITY.

WIZ001-002-006>008-014>016-023>028-010900-
NORTHWEST WISCONSIN

CITY           SKY/WX    TMP DP  RH WIND       PRES   REMARKS
SUPERIOR ARPT  FLURRIES   9   3  76 NE12      30.38S WCI  -6
ASHLAND        CLOUDY    12   5  73 E7        30.36R WCI   1
HAYWARD        CLOUDY    12   2  64 NE9       30.28F WCI   0
SIREN          CLOUDY    14   6  72 NE9G16    30.28F WCI   2
CUMBERLAND     CLOUDY    14   5  67 NE15      30.23F WCI  -1
RICE LAKE      CLOUDY    15   6  68 NE12G18   30.25F WCI   2
CHETEK         CLOUDY    15   5  65 MISG      30.24S
LADYSMITH      CLOUDY    14   5  67 NE12      30.26S WCI   0
EAU CLAIRE     NOT AVBL
MENOMONIE      CLOUDY    18   8  64 NE16      30.21F WCI   4
NEW RICHMOND   CLOUDY    17   8  70 NE15G23   30.22F WCI   2
OSCEOLA        CLOUDY    17   9  69 NE14      30.27F WCI   3
$$

WIZ003>005-009-010-017-018-010900-
NORTH CENTRAL WISCONSIN

CITY           SKY/WX    TMP DP  RH WIND       PRES   REMARKS
MANITOWISH WTR MOCLDY     3  -3  77 NE8       30.28S WCI -10
ARBOR VITAE    MOCLDY     6   1  76 NE3       30.27S
WOODRUFF       MOCLDY     6   1  76 NE3       30.27S
RHINELANDER    CLOUDY     5  -1  76 NE8       30.26S WCI  -8
EAGLE RIVER    CLOUDY     5  -3  69 E6        30.27S WCI  -6
LAND O LAKES   CLOUDY     5   0  79 N5        30.29S WCI  -4
PHILLIPS       CLOUDY     9   2  73 NE8       30.25R WCI  -4
TOMAHAWK       CLOUDY     9   1  70 NE7       30.26S WCI  -2
MEDFORD        CLOUDY    13   6  72 NE16      30.20S WCI  -3
MERRILL        CLOUDY    13   5  70 E14G20    30.24S WCI  -2
$$

WIZ029-030-035-036-043>047-010900-
CENTRAL WISCONSIN

CITY           SKY/WX    TMP DP  RH WIND       PRES   REMARKS
WAUSAU         CLOUDY    14   6  70 E15       30.22S WCI  -1
MOSINEE        CLOUDY    16  10  79 NE15      30.22S WCI   1
MARSHFIELD     CLOUDY    18   9  68 E15       30.18R WCI   4
STEVENS POINT  CLOUDY    14   7  75 E13G18    30.22S WCI   0
WAUPACA        LGT SNOW  17   8  70 NE8G18    30.25F WCI   6
WAUTOMA        LGT SNOW  16  10  79 NE18G25   30.22S WCI  -1
WISC RAPIDS    LGT SNOW  17  12  80 E15       30.22R WCI   2
CAMP DOUGLAS   LGT SNOW  21  21 100 NE13G20   30.16R FOG     WCI   9
$$

WIZ011>013-019>022-031-037>040-048>050-010900-
NORTHEAST WISCONSIN

CITY           SKY/WX    TMP DP  RH WIND       PRES   REMARKS
ANTIGO         CLOUDY     8   1  73 NE15      30.24S WCI  -9
SHAWANO        CLOUDY    15   5  63 NE12      30.29F WCI   2
OCONTO         CLOUDY    13   4  68 MISG      30.31F
STURGEON BAY   CLOUDY    12   5  73 N15       30.30F WCI  -4
GREEN BAY      CLOUDY    15   6  67 NE23      30.28F WCI  -3
MANITOWOC      NOT AVBL
APPLETON       CLOUDY    16   5  62 NE20G29   30.23F WCI  -1
CLINTONVILLE   CLOUDY    14   3  62 NE10      30.27F WCI   1
OSHKOSH        LGT SNOW  15  11  83 NE18G24   30.22F FOG     WCI  -2
$$

WIZ032>034-041-042-053>061-010900-
SOUTHWEST WISCONSIN

CITY           SKY/WX    TMP DP  RH WIND       PRES   REMARKS
LA CROSSE      LGT SNOW  27  23  85 NE8       30.13F FOG     WCI  19
SPARTA         LGT SNOW  25  22  88 NE7       30.15S WCI  17
VIROQUA        CLOUDY    24  24 100 E18       30.07F WCI  10
BOSCOBEL       LGT SNOW  27  23  85 E7G17     30.09F VSB 3/4 WCI  19
PRAIRIE DU CHI LGT SNOW  28  24  88 E6        30.06F VSB 1   WCI  21
PLATTEVILLE    CLOUDY    28  26  96 NE17      30.03F VSB 1   WCI  15
$$

WIZ056-057-062-063-064-067-068-010900-
SOUTH CENTRAL WISCONSIN

CITY           SKY/WX    TMP DP  RH WIND       PRES   REMARKS
REEDSBURG      LGT SNOW  23  20  89 NE13G18   30.13R WCI  11
BARABOO/DELLS  LGT SNOW  22  19  89 NE15G23   30.13R VSB 3/4 WCI   9
LONE ROCK      LGT SNOW  27  22  81 E20       30.11F WCI  13
MINERAL POINT  LGT SNOW  28  27  93 E16       30.05F VSB 1   WCI  17
MADISON        LGT SNOW  25  21  85 NE16      30.12S FOG     WCI  12
MIDDLETON      CLOUDY    27  25  90 E13G18    30.11F WCI  16
WATERTOWN      LGT SNOW  25  23  93 NE13G22   30.12F WCI  13
MONROE         LGT SNOW  28  28 100 NE12      30.06F VSB 3/4 WCI  18
JANESVILLE     LGT SNOW  30  30 100 E9        30.10S WCI  22
$$

WIZ051-052-058>065-066-070>072-010900-
SOUTHEAST WISCONSIN

CITY           SKY/WX    TMP DP  RH WIND       PRES   REMARKS
MILWAUKEE      LGT SNOW  28  24  85 NE17      30.14F FOG     WCI  16
WAUKESHA       LGT SNOW  27  23  86 NE16      30.13F WCI  14
MILWAUKEE/TIMM LGT SNOW  28  23  80 NE14G23   30.15F WCI  17
RACINE         LGT SNOW  29  25  85 NE15      30.14F FOG     WCI  18
BURLINGTON     LGT SNOW  27  25  94 E13       30.12F WCI  16
KENOSHA        LGT SNOW  29  27  92 NE13      30.12F FOG     WCI  19
FOND DU LAC    LGT SNOW  18  13  80 NE16      30.21F WCI   3
SHEBOYGAN      LGT SNOW  19  16  88 N12       30.20F VSB 1   WCI   7
WEST BEND      LGT SNOW  23  21  93 NE12      30.16F WCI  12
JUNEAU         LGT SNOW  22  19  89 NE12G18   30.16F WCI  10
$$

LSZ147-162-010900-
LAKE SUPERIOR

STATION/POSITION TIME  TEMP    WIND        PRES    WAVE
                       AIR SEA DIR/SP/G            HT/PER
                 (UTC) (F)     (DEG/KT/KT) (MB)    (FT/S)
DEVILS ISLAND    0700   12      50/ 21/ 25 1030.8F
PORT WING        0700   14      70/  9/ 16 1028.4R
SAXON HARBOR     0700   12      90/  3/  9 1028.4R
$$

LMZ867-665-643>646-010900-
LAKE MICHIGAN

STATION/POSITION TIME  TEMP    WIND        PRES    WAVE
                       AIR SEA DIR/SP/G            HT/PER
                 (UTC) (F)     (DEG/KT/KT) (MB)    (FT/S)
NORTHPORT PIER   0727   15     360/ 12/ 18 1027.1R
SISTER BAY       0628   14      10/  9/ 13   N/A
KEWAUNEE LAKESHO 0700   15     360/ 11/ 14 1024.7R
SHEBOYGAN LAKESH 0700   25      30/ 26/ 28 1024.4F
PORT WASHINGTON  0700   28      50/ 19/ 23 1023.4
MILWAUKEE LAKESH 0700   29      50/ 19/ 23   N/A
KENOSHA   LAKESH 0700   30      60/ 17/ 21 1020.7F
$$

TC  - TEMPERATURE IN CELSIUS
VSB - VISIBILITY IN STATUTE MILES
WCI - WIND CHILL INDEX
HX  - HEAT INDEX




USA.gov is the U.S. government's official web portal to all federal, state and local government web resources and services.